| time (UTC) | temp F | wind direction | speed MPH | gust MPH | rain 1hr in | rain 24hr in | rain mn in | humidity % | barometer mb |
| 20260504044648 | 48 | 0.0 | 0.0 | 0.00 | 0.00 | 0.00 | 72 | 1013.9 | |
| 20260504043624 | 48 | 135 | 1.0 | 2.0 | 0.00 | 0.00 | 0.00 | 72 | 1013.9 |
| 20260504042611 | 48 | 0.0 | 0.0 | 0.00 | 0.00 | 0.00 | 71 | 1014.1 | |
| 20260504041527 | 49 | 1.0 | 2.0 | 0.00 | 0.00 | 0.00 | 69 | 1014.2 | |
| 20260504040519 | 50 | 0.0 | 0.0 | 0.00 | 0.00 | 0.00 | 68 | 1014.3 | |
| 20260504035416 | 50 | 0.0 | 0.0 | 0.00 | 0.00 | 0.00 | 69 | 1014.3 | |
| 20260504034226 | 50 | 0.0 | 0.0 | 0.00 | 0.00 | 0.00 | 68 | 1014.5 | |
| 20260504033201 | 50 | 0.0 | 0.0 | 0.00 | 0.00 | 0.00 | 69 | 1014.6 | |
| 20260504032132 | 50 | 0.0 | 0.0 | 0.00 | 0.00 | 0.00 | 68 | 1014.6 | |
| 20260504031055 | 50 | 0.0 | 0.0 | 0.00 | 0.00 | 0.00 | 69 | 1014.8 | |
| 20260504030030 | 50 | 0.0 | 0.0 | 0.00 | 0.00 | 0.00 | 69 | 1014.8 | |
| 20260504024954 | 50 | 0.0 | 0.0 | 0.00 | 0.00 | 0.00 | 69 | 1014.8 | |
| 20260504023917 | 50 | 0.0 | 0.0 | 0.00 | 0.00 | 0.00 | 68 | 1015.0 | |
| 20260504022848 | 50 | 0.0 | 0.0 | 0.00 | 0.00 | 0.00 | 68 | 1015.1 | |
| 20260504021849 | 0 | 0.0 | 0.0 | 0.00 | 0.00 | 0.00 | 1015.3 | ||
| 20260504020820 | 50 | 0.0 | 1.0 | 0.00 | 0.00 | 0.00 | 66 | 1015.3 | |
| 20260504015723 | 50 | 158 | 0.0 | 1.0 | 0.00 | 0.00 | 0.00 | 65 | 1015.3 |
| 20260504014648 | 51 | 225 | 1.0 | 3.0 | 0.00 | 0.00 | 0.00 | 62 | 1015.1 |
| 20260504013631 | 51 | 135 | 2.0 | 3.0 | 0.00 | 0.00 | 0.00 | 57 | 1015.0 |
| 20260504012555 | 0 | 0.0 | 0.0 | 0.00 | 0.00 | 0.00 | 1014.6 | ||
| 20260504011533 | 51 | 0.0 | 2.0 | 0.00 | 0.00 | 0.00 | 54 | 1014.4 | |
| 20260504010456 | 52 | 0.0 | 0.0 | 0.00 | 0.00 | 0.00 | 52 | 1014.4 | |
| 20260504005420 | 52 | 135 | 2.0 | 4.0 | 0.00 | 0.00 | 0.00 | 51 | 1014.4 |
| 20260504004400 | 53 | 0.0 | 0.0 | 0.00 | 0.00 | 0.00 | 51 | 1014.4 | |
| 20260504003318 | 54 | 0.0 | 0.0 | 0.00 | 0.00 | 0.00 | 48 | 1014.3 | |
| 20260504002300 | 55 | 158 | 2.0 | 3.0 | 0.00 | 0.00 | 0.00 | 48 | 1014.3 |
| 20260504001242 | 56 | 158 | 2.0 | 3.0 | 0.00 | 0.00 | 0.00 | 47 | 1014.2 |
| 20260504000213 | 57 | 212 | 2.0 | 4.0 | 0.00 | 0.00 | 0.00 | 47 | 1014.3 |
| 20260503235130 | 58 | 135 | 2.0 | 3.0 | 0.00 | 0.00 | 0.00 | 45 | 1014.2 |
| 20260503234048 | 59 | 135 | 1.0 | 2.0 | 0.00 | 0.00 | 0.00 | 43 | 1014.4 |
| 20260503233100 | 59 | 113 | 3.0 | 5.0 | 0.00 | 0.00 | 0.00 | 41 | 1014.4 |
| 20260503231955 | 60 | 190 | 4.0 | 7.0 | 0.00 | 0.00 | 0.00 | 43 | 1014.5 |
| 20260503230919 | 60 | 158 | 1.0 | 2.0 | 0.00 | 0.00 | 0.00 | 42 | 1014.5 |
| 20260503225910 | 60 | 158 | 2.0 | 2.0 | 0.00 | 0.00 | 0.00 | 45 | 1014.5 |
| 20260503224831 | 59 | 125 | 3.0 | 6.0 | 0.00 | 0.00 | 0.00 | 45 | 1014.5 |
| 20260503223751 | 59 | 99 | 2.0 | 5.0 | 0.00 | 0.00 | 0.00 | 44 | 1014.6 |
| 20260503222720 | 59 | 135 | 1.0 | 2.0 | 0.00 | 0.00 | 0.00 | 45 | 1014.8 |
| 20260503221655 | 60 | 113 | 1.0 | 2.0 | 0.00 | 0.00 | 0.00 | 45 | 1014.8 |
| 20260503220618 | 60 | 135 | 2.0 | 2.0 | 0.00 | 0.00 | 0.00 | 44 | 1014.8 |
| 20260503215600 | 60 | 113 | 2.0 | 4.0 | 0.00 | 0.00 | 0.00 | 42 | 1014.8 |
| 20260503214530 | 59 | 135 | 1.0 | 2.0 | 0.00 | 0.00 | 0.00 | 46 | 1014.6 |
| 20260503213501 | 60 | 135 | 1.0 | 2.0 | 0.00 | 0.00 | 0.00 | 45 | 1014.8 |
| 20260503212417 | 60 | 124 | 3.0 | 4.0 | 0.00 | 0.00 | 0.00 | 43 | 1014.8 |
| 20260503211402 | 59 | 158 | 2.0 | 3.0 | 0.00 | 0.00 | 0.00 | 47 | 1014.9 |
| 20260503210331 | 60 | 113 | 2.0 | 3.0 | 0.00 | 0.00 | 0.00 | 46 | 1014.8 |
| 20260503205258 | 62 | 135 | 1.0 | 2.0 | 0.00 | 0.00 | 0.00 | 44 | 1014.8 |
| 20260503204215 | 61 | 135 | 2.0 | 2.0 | 0.00 | 0.00 | 0.00 | 39 | 1014.9 |
| 20260503203211 | 60 | 113 | 4.0 | 9.0 | 0.00 | 0.00 | 0.00 | 42 | 1014.9 |
| 20260503202122 | 63 | 123 | 2.0 | 3.0 | 0.00 | 0.00 | 0.00 | 43 | 1014.9 |
| 20260503201047 | 61 | 113 | 2.0 | 3.0 | 0.00 | 0.00 | 0.00 | 43 | 1015.3 |
| 20260503200023 | 62 | 128 | 2.0 | 2.0 | 0.00 | 0.00 | 0.00 | 45 | 1015.5 |
| 20260503195013 | 62 | 113 | 4.0 | 5.0 | 0.00 | 0.00 | 0.00 | 44 | 1015.5 |
| 20260503193933 | 60 | 158 | 3.0 | 3.0 | 0.00 | 0.00 | 0.00 | 42 | 1015.8 |
| 20260503192855 | 61 | 158 | 2.0 | 3.0 | 0.00 | 0.00 | 0.00 | 43 | 1016.0 |
| 20260503191820 | 61 | 135 | 4.0 | 5.0 | 0.00 | 0.00 | 0.00 | 44 | 1016.0 |
| 20260503190748 | 61 | 113 | 1.0 | 2.0 | 0.00 | 0.00 | 0.00 | 40 | 1016.1 |
| 20260503185726 | 61 | 189 | 3.0 | 5.0 | 0.00 | 0.00 | 0.00 | 45 | 1016.2 |
| 20260503184654 | 62 | 158 | 4.0 | 5.0 | 0.00 | 0.00 | 0.00 | 42 | 1016.4 |
| 20260503183617 | 61 | 158 | 2.0 | 3.0 | 0.00 | 0.00 | 0.00 | 43 | 1016.7 |
| 20260503182620 | 64 | 135 | 3.0 | 5.0 | 0.00 | 0.00 | 0.00 | 43 | 1016.7 |
| 20260503181516 | 62 | 113 | 2.0 | 3.0 | 0.00 | 0.00 | 0.00 | 47 | 1016.8 |
| 20260503180607 | 62 | 227 | 3.0 | 4.0 | 0.00 | 0.00 | 0.00 | 39 | 1017.0 |
| 20260503175421 | 62 | 113 | 2.0 | 3.0 | 0.00 | 0.00 | 0.00 | 45 | 1017.1 |
| 20260503174353 | 62 | 260 | 3.0 | 5.0 | 0.00 | 0.00 | 0.00 | 43 | 1017.1 |
| 20260503173333 | 61 | 113 | 2.0 | 2.0 | 0.00 | 0.00 | 0.00 | 44 | 1017.2 |
| 20260503172249 | 61 | 158 | 2.0 | 2.0 | 0.00 | 0.00 | 0.00 | 49 | 1017.5 |
| 20260503171225 | 61 | 113 | 3.0 | 4.0 | 0.00 | 0.00 | 0.00 | 50 | 1017.5 |
| 20260503170150 | 59 | 195 | 2.0 | 3.0 | 0.00 | 0.00 | 0.00 | 44 | 1017.7 |
| 20260503150616 | 56 | 158 | 2.0 | 2.0 | 0.00 | 0.00 | 0.00 | 50 | 1018.5 |
| 20260503131056 | 50 | 158 | 1.0 | 1.0 | 0.00 | 0.01 | 0.00 | 52 | 1019.1 |
| 20260503110449 | 32 | 0.0 | 0.0 | 0.00 | 0.05 | 0.00 | 91 | 1018.9 | |
| 20260503100157 | 31 | 0.0 | 0.0 | 0.00 | 0.05 | 0.00 | 91 | 1018.5 | |
| 20260503080619 | 32 | 0.0 | 0.0 | 0.00 | 0.16 | 0.00 | 90 | 1018.7 | |
| 20260503072420 | 32 | 0.0 | 0.0 | 0.00 | 0.16 | 0.00 | 90 | 1018.7 | |
| 20260503071401 | 32 | 0.0 | 0.0 | 0.00 | 0.16 | 0.00 | 89 | 1018.7 | |
| 20260503070317 | 32 | 0.0 | 0.0 | 0.00 | 0.16 | 0.00 | 89 | 1018.6 | |
| 20260503054950 | 33 | 0.0 | 0.0 | 0.00 | 0.17 | 0.00 | 86 | 1019.0 | |
| 20260503053925 | 33 | 0.0 | 0.0 | 0.00 | 0.17 | 0.00 | 86 | 1019.0 | |
| 20260503052855 | 33 | 0.0 | 0.0 | 0.00 | 0.17 | 0.00 | 85 | 1019.0 | |
| 20260503051851 | 34 | 0.0 | 0.0 | 0.00 | 0.17 | 0.00 | 84 | 1019.1 | |
| 20260503050749 | 34 | 0.0 | 0.0 | 0.00 | 0.17 | 0.00 | 82 | 1019.1 | |
| 20260503045732 | 35 | 0.0 | 0.0 | 0.00 | 0.17 | 0.00 | 82 | 1019.1 |